Location: ??????
(38.0677°N, 22.9870°E)
Time: 15:36:35
(UTC+00:00)

CZ-2C R/B - Pass Details

Date: 23 May 2024
Orbit: 703 x 904 km, 98.2° (Epoch: 23 June)

Event Time Altitude Azimuth Distance (km) Brightness Sun altitude
Rises 23:57:55 0° 21° (NNE) 3,536 7.7 -27.4°
Reaches altitude 10° 00:00:34 10° 30° (NNE) 2,587 6.7 -27.1°
Maximum altitude 00:05:54 37° 96° (E) 1,344 4.3 -26.7°
Enters shadow 00:07:29 32° 130° (SE) 1,485 4.3 -26.5°
